Weather History for Exeter, United Kingdom

Change the Weather History Date:

Saturday, December 21, 2013

  Actual Average Record
Temperature  
Mean Temperature 50 °F -  
Max Temperature 55 °F 46 °F 55 °F (2011)
Min Temperature 46 °F 36 °F 23 °F (2006)
Degree Days  
Heating Degree Days 14    
Moisture  
Dew Point 48 °F    
Average Humidity 85    
Maximum Humidity 100    
Minimum Humidity 69    
Precipitation  
Precipitation 0.08 in - - ()
Sea Level Pressure  
Sea Level Pressure 29.83 in    
Wind  
Wind Speed 14 mph ()    
Max Wind Speed 26 mph    
Max Gust Speed 36 mph    
Visibility 6.2 miles    
Events Rain    
Averages and records for this station are not official NWS values.
T = Trace of Precipitation, MM = Missing Value Source: Averaged Metar Reports

Daily Weather History Graph

Daily Weather History Graph

Search for Another Location

Airport:

Trip Planner

Search our weather history database for the weather conditions in past years. The results will help you decide how hot, cold, wet, or windy it might be!

Date:

Astronomy

Dec. 21, 2013 Rise Set
Actual Time 8:13 AM GMT 4:10 PM GMT
Civil Twilight 7:33 AM GMT 4:49 PM GMT
Nautical Twilight 6:51 AM GMT 5:32 PM GMT
Astronomical Twilight 6:11 AM GMT 6:12 PM GMT
Moon 8:37 PM GMT (12/21) 10:10 AM GMT (12/21)
Length of Visible Light 9h 16m
Length of Day
7h 57m
Waning Gibbous, 86% of the Moon is Illuminated
Dec 21
Waning Gibbous
Dec 25
Last Quarter
Jan 1
New
Jan 8
First Quarter
Jan 16
Full

Hourly Weather History & Observations

Time (GMT) Temp. Windchill Dew Point Humidity Pressure Visibility Wind Dir Wind Speed Gust Speed Precip Events Conditions
12:00 AM 52 °F - 49 °F 86%  in - Calm Calm - -  
12:20 AM 51.8 °F - 50.0 °F 94% 30.01 in 6.2 mi SW 24.2 mph 35.7 mph N/A Rain Light Rain
12:50 AM 51.8 °F - 50.0 °F 94% 29.98 in 6.2 mi SW 21.9 mph - N/A Rain Light Rain
1:00 AM 52 °F - 50 °F 89%  in - Calm Calm - -  
1:20 AM 51.8 °F - 50.0 °F 94% 29.98 in 6.2 mi SSW 23.0 mph - N/A Rain Light Rain
1:50 AM 51.8 °F - 50.0 °F 94% 29.98 in 6.2 mi SSW 20.7 mph - N/A Rain Light Rain
2:00 AM 52 °F - 50 °F 91%  in - Calm Calm - -  
3:00 AM 52 °F - 51 °F 93%  in - Calm Calm - -  
4:00 AM 53 °F - 51 °F 89%  in - Calm Calm - -  
5:00 AM 53 °F - 51 °F 92%  in - Calm Calm - -  
6:00 AM 54 °F - 52 °F 90%  in - Calm Calm - -  
6:20 AM 51.8 °F - 51.8 °F 100% 29.92 in 6.2 mi SSW 8.1 mph - N/A   Scattered Clouds
6:50 AM 51.8 °F - 51.8 °F 100% 29.92 in 6.2 mi SSW 10.4 mph - N/A Rain Light Rain Showers
7:00 AM 53 °F - 51 °F 92%  in - Calm Calm - -  
7:20 AM 53.6 °F - 51.8 °F 94% 29.92 in 6.2 mi South 10.4 mph - N/A Rain Light Rain Showers
7:50 AM 51.8 °F - 51.8 °F 100% 29.92 in 6.2 mi SSW 10.4 mph - N/A Rain Light Rain
8:00 AM 53 °F - 51 °F 90%  in - Calm Calm - -  
8:20 AM 51.8 °F - 50.0 °F 94% 29.89 in 6.2 mi SSW 11.5 mph - N/A   Scattered Clouds
8:50 AM 51.8 °F - 50.0 °F 94% 29.89 in 6.2 mi South 10.4 mph - N/A   Scattered Clouds
9:00 AM 52 °F - 50 °F 92%  in - Calm Calm - -  
9:20 AM 51.8 °F - 50.0 °F 94% 29.89 in 5.0 mi SSW 9.2 mph - N/A   Light Drizzle
9:50 AM 51.8 °F - 51.8 °F 100% 29.89 in 6.2 mi SSW 11.5 mph - N/A Rain Light Rain
10:00 AM 53 °F - 52 °F 96%  in - Calm Calm - -  
10:20 AM 53.6 °F - 51.8 °F 94% 29.89 in 6.2 mi WSW 12.7 mph - N/A Rain Light Rain
10:50 AM 53.6 °F - 51.8 °F 94% 29.86 in 6.2 mi Variable 2.3 mph - N/A   Scattered Clouds
11:00 AM 53 °F - 52 °F 95%  in - Calm Calm - -  
11:20 AM 53.6 °F - 50.0 °F 88% 29.86 in 6.2 mi SSW 10.4 mph - N/A   Scattered Clouds
11:50 AM 53.6 °F - 50.0 °F 88% 29.86 in 6.2 mi South 11.5 mph - N/A   Scattered Clouds
12:00 PM 53 °F - 50 °F 86%  in - Calm Calm - -  
12:20 PM 53.6 °F - 50.0 °F 88% 29.83 in 6.2 mi SSW 10.4 mph - N/A   Mostly Cloudy
12:50 PM 53.6 °F - 50.0 °F 88% 29.80 in 6.2 mi SSW 10.4 mph - N/A   Mostly Cloudy
1:00 PM 54 °F - 51 °F 84%  in - Calm Calm - -  
1:20 PM 53.6 °F - 50.0 °F 88% 29.77 in 6.2 mi SSW 11.5 mph - N/A   Mostly Cloudy
1:50 PM 55.4 °F - 50.0 °F 82% 29.77 in 6.2 mi SW 13.8 mph - N/A   Scattered Clouds
2:00 PM 55 °F - 50 °F 76%  in - Calm Calm - -  
2:20 PM 53.6 °F - 48.2 °F 82% 29.74 in 6.2 mi SW 13.8 mph - N/A   Scattered Clouds
2:50 PM 53.6 °F - 48.2 °F 82% 29.74 in 6.2 mi SW 13.8 mph - N/A   Scattered Clouds
3:00 PM 53 °F - 48 °F 78%  in - Calm Calm - -  
3:20 PM 53.6 °F - 48.2 °F 82% 29.71 in 6.2 mi SW 15.0 mph - N/A   Scattered Clouds
3:50 PM 53.6 °F - 46.4 °F 77% 29.71 in 6.2 mi SW 16.1 mph - N/A   Partly Cloudy
4:00 PM 53 °F - 46 °F 69%  in - Calm Calm - -  
4:20 PM 51.8 °F - 46.4 °F 82% 29.71 in 6.2 mi SW 16.1 mph - N/A   Scattered Clouds
4:50 PM 53.6 °F - 46.4 °F 77% 29.71 in 6.2 mi SW 20.7 mph 33.4 mph N/A   Mostly Cloudy
5:00 PM 54 °F - 47 °F 70%  in - Calm Calm - -  
5:20 PM 53.6 °F - 48.2 °F 82% 29.71 in 6.2 mi SW 25.3 mph - N/A Rain Light Rain Showers
5:50 PM 53.6 °F - 50.0 °F 88% 29.71 in 6.2 mi SW 26.5 mph - N/A Rain Rain Showers
6:00 PM 53 °F - 49 °F 84%  in - Calm Calm - -  
6:20 PM 51.8 °F - 44.6 °F 76% 29.74 in 6.2 mi West 20.7 mph 34.5 mph N/A   Scattered Clouds
6:50 PM 50.0 °F - 42.8 °F 76% 29.77 in 6.2 mi WSW 16.1 mph - N/A   Partly Cloudy
7:00 PM 49 °F - 42 °F 71%  in - Calm Calm - -  
7:20 PM 50.0 °F - 42.8 °F 76% 29.77 in 6.2 mi WSW 16.1 mph - N/A   Partly Cloudy
7:50 PM 48.2 °F - 42.8 °F 82% 29.77 in - SW 13.8 mph - N/A   Clear
8:00 PM 48 °F - 42 °F 74%  in - Calm Calm - -  
8:20 PM 48.2 °F - 44.6 °F 87% 29.80 in 6.2 mi WSW 17.3 mph - N/A   Scattered Clouds
9:00 PM 47 °F - 42 °F 77%  in - Calm Calm - -  
9:50 PM 46.4 °F 40.4 °F 41.0 °F 81% 29.83 in 6.2 mi WSW 13.8 mph - N/A   Partly Cloudy
10:00 PM 47 °F - 41 °F 72%  in - Calm Calm - -  
10:20 PM 48.2 °F - 39.2 °F 71% 29.83 in - WSW 15.0 mph - N/A   Clear
10:50 PM 46.4 °F 40.4 °F 39.2 °F 76% 29.83 in - WSW 13.8 mph - N/A   Clear
11:00 PM 46 °F - 40 °F 72%  in - Calm Calm - -  
11:20 PM 46.4 °F 39.8 °F 39.2 °F 76% 29.83 in - WSW 16.1 mph - N/A   Clear
11:50 PM 46.4 °F 40.7 °F 39.2 °F 76% 29.83 in - WSW 12.7 mph - N/A   Clear